Location: London
(42.9830°N, 81.2500°W)
Time: 09:02:35
(UTC-04:00)

Amateur Radio Satellites - All Passes

Search period start: 20 October 2014 08:32
Search period end: 21 October 2014 08:32
Location: London, 42.9830°N, 81.2500°W

Satellite Date Start Highest point End Downlink Frequencies (MHz)
Time Altitude Azimuth
STRAND 1 20 Oct 09:05:42 09:07:16 11° 272° (W) 09:08:51 ?
HO-68 20 Oct 09:06:59 09:11:45 19° 90° (E) 09:16:30 435.675 MHz FM
Saudisat 1A 20 Oct 09:30:47 09:35:05 59° 120° (ESE) 09:39:25 436.775 MHz
RS-15 20 Oct 09:37:56 09:48:49 61° 245° (WSW) 10:00:10 29.354 - 29.394 USB, Beacon 29.352 USB
JAS-2 20 Oct 09:48:13 09:50:01 11° 311° (NW) 09:51:50 435.800 - 435.900 CW/SSB, 435.910 FM
Oscar 11 20 Oct 10:19:07 10:22:19 20° 93° (E) 10:25:30 145.825 FM, Beacon 2401.500 USB
MaSat-1 20 Oct 10:31:09 10:33:34 26° 56° (NE) 10:35:47 437.345 MHz
HO-68 20 Oct 10:53:01 11:00:15 83° 288° (WNW) 11:07:26 435.675 MHz FM
ZACube-1 20 Oct 10:53:53 10:57:05 20° 93° (E) 11:00:13 437.345 MHz
UKube-1 20 Oct 11:08:05 11:12:29 74° 103° (ESE) 11:16:50 145.840 MHz, 145.915 MHz
Saudisat 1A 20 Oct 11:11:43 11:15:00 20° 319° (NW) 11:18:19 436.775 MHz
FUNcube-1 20 Oct 11:39:06 11:43:24 62° 101° (E) 11:47:34 145.950 - 145.970 MHz USB
Oscar 11 20 Oct 11:54:39 11:58:38 37° 290° (WNW) 12:02:35 145.825 FM, Beacon 2401.500 USB
RS-15 20 Oct 11:55:21 11:58:45 12° 266° (W) 12:02:11 29.354 - 29.394 USB, Beacon 29.352 USB
ZACube-1 20 Oct 12:29:39 12:33:37 36° 290° (WNW) 12:37:30 437.345 MHz
Oscar 16 20 Oct 12:39:51 12:42:52 16° 60° (ENE) 12:45:53 437.025 USB, Beacon 2401.1428
HO-68 20 Oct 12:42:23 12:46:55 18° 308° (NW) 12:51:27 435.675 MHz FM
UKube-1 20 Oct 12:46:20 12:48:04 12° 300° (WNW) 12:49:48 145.840 MHz, 145.915 MHz
JAS-1B 20 Oct 12:57:26 13:01:39 20° 61° (ENE) 13:05:42 435.800 - 435.900 CW/SSB
AO-Echo 20 Oct 13:15:10 13:18:00 16° 60° (ENE) 13:20:53 ?
FUNcube-1 20 Oct 13:17:10 13:19:14 13° 298° (WNW) 13:21:17 145.950 - 145.970 MHz USB
Sapphire 20 Oct 13:19:09 13:23:09 20° 42° (NE) 13:27:08 437.095 MHz 1200 baud AX-25 AFSK
KITSAT 1 20 Oct 13:31:23 13:39:08 54° 113° (ESE) 13:46:55 435.175 FM
Oscar 19 20 Oct 13:31:55 13:36:46 43° 69° (ENE) 13:41:37 437.125 CW, 437.150 USB
AO-27 20 Oct 13:38:11 13:42:09 23° 63° (ENE) 13:46:08 436.795 MHz FM
PCSat 20 Oct 13:41:55 13:46:40 30° 48° (NE) 13:51:23 145.825 MHz
SO-50 20 Oct 14:03:23 14:06:54 23° 112° (ESE) 14:10:30 436.795 FM
Oscar 16 20 Oct 14:16:26 14:21:36 74° 257° (WSW) 14:26:48 437.025 USB, Beacon 2401.1428
Gurwin Techsat 1B 20 Oct 14:23:24 14:27:55 29° 65° (ENE) 14:32:27 435.225 FM
Uribyol 2 20 Oct 14:27:03 14:32:11 62° 72° (ENE) 14:37:21 436.500 FM
ITAMSAT 1 20 Oct 14:31:47 14:36:55 65° 72° (ENE) 14:42:06 435.822 SSB
TMSAT-1 20 Oct 14:37:53 14:42:24 29° 66° (ENE) 14:46:56 436.925 FM
JAS-1B 20 Oct 14:45:51 14:51:58 59° 258° (WSW) 14:57:36 435.800 - 435.900 CW/SSB
ISS 20 Oct 14:50:28 14:53:26 30° 137° (SE) 14:56:25 145.800 FM
AO-Echo 20 Oct 14:51:22 14:56:09 69° 258° (WSW) 15:01:09 ?
Sapphire 20 Oct 15:01:45 15:07:12 78° 242° (WSW) 15:12:37 437.095 MHz 1200 baud AX-25 AFSK
Oscar 19 20 Oct 15:12:07 15:16:16 24° 266° (W) 15:20:25 437.125 CW, 437.150 USB
AO-27 20 Oct 15:16:16 15:21:18 50° 260° (W) 15:26:24 436.795 MHz FM
PCSat 20 Oct 15:25:05 15:30:16 46° 247° (WSW) 15:35:24 145.825 MHz
KITSAT 1 20 Oct 15:27:13 15:34:46 41° 314° (NW) 15:42:21 435.175 FM
AO-7 20 Oct 15:39:46 15:47:18 41° 60° (ENE) 15:54:52 29.400 - 29.500 MHz
SO-50 20 Oct 15:42:52 15:47:11 44° 311° (NW) 15:51:38 436.795 FM
UOSAT-12 20 Oct 15:53:16 15:57:10 27° 113° (ESE) 16:01:08 437.025 FM, 437.400 FM
Gurwin Techsat 1B 20 Oct 16:02:49 16:07:44 38° 263° (W) 16:12:41 435.225 FM
Uribyol 2 20 Oct 16:08:44 16:12:05 17° 269° (W) 16:15:26 436.500 FM
ITAMSAT 1 20 Oct 16:13:40 16:16:52 16° 269° (W) 16:20:06 435.822 SSB
TMSAT-1 20 Oct 16:17:16 16:22:10 38° 263° (W) 16:27:07 436.925 FM
Saudisat 1A 20 Oct 16:18:49 16:20:29 12° 33° (NNE) 16:22:08 436.775 MHz
Oscar 10/S400 20 Oct 16:24:46 16:42:24 49° 161° (SSE) 17:24:54 145.825 - 145.975 CW/USB, Beacon 145.810 USB
ISS 20 Oct 16:26:54 16:30:05 40° 335° (NNW) 16:33:16 145.800 FM
JAS-2 20 Oct 16:30:31 16:34:05 16° 54° (NE) 16:37:52 435.800 - 435.900 CW/SSB, 435.910 FM
Uosat F 20 Oct 16:31:53 16:36:43 50° 70° (ENE) 16:41:35 435.120 FM
Sapphire 20 Oct 16:49:18 16:49:40 10° 259° (W) 16:50:03 437.095 MHz 1200 baud AX-25 AFSK
KITSAT 1 20 Oct 17:28:04 17:32:45 16° 342° (NNW) 17:37:26 435.175 FM
SO-50 20 Oct 17:28:53 17:29:00 10° 332° (NNW) 17:29:07 436.795 FM
AO-7 20 Oct 17:32:02 17:39:57 49° 259° (W) 17:47:55 29.400 - 29.500 MHz
UOSAT-12 20 Oct 17:32:46 17:37:09 40° 312° (NW) 17:41:36 437.025 FM, 437.400 FM
Hamsat 20 Oct 17:40:34 17:44:12 28° 69° (ENE) 17:47:49 145.90 MHz
OPAL 20 Oct 17:56:01 18:00:08 25° 97° (E) 18:04:12 ?
Saudisat 1A 20 Oct 17:56:33 18:00:57 61° 53° (NE) 18:05:19 436.775 MHz
ISS 20 Oct 18:04:57 18:07:25 19° 355° (N) 18:09:54 145.800 FM
Uosat F 20 Oct 18:12:10 18:15:47 20° 267° (W) 18:19:25 435.120 FM
JAS-2 20 Oct 18:12:20 18:18:04 89° 256° (WSW) 18:24:37 435.800 - 435.900 CW/SSB, 435.910 FM
SO-67 20 Oct 19:03:44 19:06:38 26° 71° (ENE) 19:09:34 435.3500 MHz FM
Hamsat 20 Oct 19:16:36 19:20:07 25° 265° (W) 19:23:38 145.90 MHz
KITSAT 1 20 Oct 19:28:07 19:32:15 14° 13° (NNE) 19:36:22 435.175 FM
STRAND 1 20 Oct 19:32:30 19:36:53 27° 95° (E) 19:41:14 ?
OPAL 20 Oct 19:34:31 19:39:08 39° 294° (WNW) 19:43:42 ?
Saudisat 1A 20 Oct 19:37:28 19:40:02 15° 250° (WSW) 19:42:36 436.775 MHz
HO-68 20 Oct 19:37:59 19:42:24 18° 52° (NE) 19:46:50 435.675 MHz FM
ISS 20 Oct 19:42:10 19:44:57 24° 15° (NNE) 19:47:44 145.800 FM
JAS-2 20 Oct 20:01:47 20:04:19 13° 277° (W) 20:06:58 435.800 - 435.900 CW/SSB, 435.910 FM
SO-67 20 Oct 20:37:15 20:39:38 18° 267° (W) 20:42:02 435.3500 MHz FM
STRAND 1 20 Oct 21:11:23 21:16:08 38° 292° (WNW) 21:20:52 ?
Oscar 11 20 Oct 21:15:26 21:18:29 19° 65° (ENE) 21:21:32 145.825 FM, Beacon 2401.500 USB
ISS 20 Oct 21:18:38 21:22:00 89° 215° (SW) 21:25:20 145.800 FM
HO-68 20 Oct 21:21:53 21:29:02 81° 72° (ENE) 21:36:15 435.675 MHz FM
KITSAT 1 20 Oct 21:23:26 21:30:38 34° 41° (NE) 21:37:47 435.175 FM
AO-40 20 Oct 21:51:01 23:48:55 26° 215° (SW) 03:34:55 Beacon 2401.320
ZACube-1 20 Oct 21:51:11 21:54:37 21° 65° (ENE) 21:58:01 437.345 MHz
RS-15 20 Oct 21:54:41 22:01:52 20° 100° (E) 22:08:57 29.354 - 29.394 USB, Beacon 29.352 USB
UKube-1 20 Oct 22:04:10 22:08:30 72° 74° (ENE) 22:12:52 145.840 MHz, 145.915 MHz
SO-50 20 Oct 22:33:05 22:37:25 32° 46° (NE) 22:41:47 436.795 FM
FUNcube-1 20 Oct 22:35:45 22:40:16 57° 73° (ENE) 22:44:45 145.950 - 145.970 MHz USB
Oscar 11 20 Oct 22:50:15 22:54:22 42° 262° (W) 22:58:30 145.825 FM, Beacon 2401.500 USB
ISS 20 Oct 22:57:02 22:58:13 12° 230° (SW) 22:59:24 145.800 FM
HO-68 20 Oct 23:12:43 23:17:31 19° 270° (W) 23:22:21 435.675 MHz FM
KITSAT 1 20 Oct 23:18:39 23:26:40 70° 243° (WSW) 23:34:38 435.175 FM
ZACube-1 20 Oct 23:26:20 23:30:43 43° 262° (W) 23:35:05 437.345 MHz
UKube-1 20 Oct 23:44:09 23:45:10 11° 271° (W) 23:46:12 145.840 MHz, 145.915 MHz
RS-15 21 Oct 00:01:26 00:12:27 84° 121° (ESE) 00:23:25 29.354 - 29.394 USB, Beacon 29.352 USB
MaSat-1 21 Oct 00:12:28 00:13:14 10° 104° (ESE) 00:13:59 437.345 MHz
SO-50 21 Oct 00:13:33 00:18:02 38° 244° (WSW) 00:22:32 436.795 FM
FUNcube-1 21 Oct 00:14:19 00:16:58 15° 269° (W) 00:19:37 145.950 - 145.970 MHz USB
UOSAT-12 21 Oct 00:21:26 00:25:44 33° 46° (NE) 00:29:59 437.025 FM, 437.400 FM
KITSAT 1 21 Oct 01:17:22 01:20:34 13° 262° (W) 01:23:46 435.175 FM
Oscar 19 21 Oct 01:44:12 01:46:43 14° 89° (E) 01:49:14 437.125 CW, 437.150 USB
MaSat-1 21 Oct 01:44:19 01:48:35 74° 297° (WNW) 01:52:28 437.345 MHz
UOSAT-12 21 Oct 02:01:38 02:05:52 34° 245° (WSW) 02:10:02 437.025 FM, 437.400 FM
RS-15 21 Oct 02:16:19 02:26:06 36° 327° (NNW) 02:36:01 29.354 - 29.394 USB, Beacon 29.352 USB
JAS-1B 21 Oct 02:27:06 02:32:58 34° 98° (E) 02:39:44 435.800 - 435.900 CW/SSB
Oscar 16 21 Oct 02:27:30 02:32:13 36° 97° (E) 02:36:54 437.025 USB, Beacon 2401.1428
Uribyol 2 21 Oct 02:39:47 02:43:38 21° 92° (E) 02:47:27 436.500 FM
ITAMSAT 1 21 Oct 02:44:35 02:48:33 21° 93° (E) 02:52:28 435.822 SSB
AO-Echo 21 Oct 02:57:31 03:02:26 38° 97° (E) 03:07:20 ?
Oscar 19 21 Oct 03:21:29 03:26:37 74° 286° (WNW) 03:31:42 437.125 CW, 437.150 USB
AO-27 21 Oct 03:28:13 03:33:22 54° 101° (E) 03:38:28 436.795 MHz FM
Sapphire 21 Oct 04:05:34 04:07:01 11° 101° (ESE) 04:08:28 437.095 MHz 1200 baud AX-25 AFSK
Oscar 16 21 Oct 04:07:04 04:11:26 29° 294° (WNW) 04:15:47 437.025 USB, Beacon 2401.1428
Gurwin Techsat 1B 21 Oct 04:17:33 04:22:54 81° 103° (ESE) 04:28:13 435.225 FM
JAS-1B 21 Oct 04:17:43 04:23:40 44° 292° (WNW) 04:30:35 435.800 - 435.900 CW/SSB
Uribyol 2 21 Oct 04:18:20 04:23:24 52° 289° (WNW) 04:28:25 436.500 FM
ITAMSAT 1 21 Oct 04:23:15 04:28:18 50° 290° (WNW) 04:33:19 435.822 SSB
PCSat 21 Oct 04:25:55 04:29:44 20° 106° (ESE) 04:33:33 145.825 MHz
TMSAT-1 21 Oct 04:31:38 04:36:58 81° 103° (ESE) 04:42:17 436.925 FM
RS-15 21 Oct 04:34:40 04:42:55 23° 2° (N) 04:51:18 29.354 - 29.394 USB, Beacon 29.352 USB
AO-Echo 21 Oct 04:36:30 04:41:02 30° 294° (WNW) 04:45:37 ?
Uosat F 21 Oct 04:40:14 04:42:54 14° 90° (E) 04:45:34 435.120 FM
Oscar 19 21 Oct 05:04:16 05:05:02 10° 304° (NW) 05:05:48 437.125 CW, 437.150 USB
AO-27 21 Oct 05:08:37 05:12:28 21° 298° (WNW) 05:16:18 436.795 MHz FM
OPAL 21 Oct 05:11:22 05:16:23 53° 69° (ENE) 05:21:21 ?
JAS-2 21 Oct 05:21:28 05:25:59 16° 86° (E) 05:30:31 435.800 - 435.900 CW/SSB, 435.910 FM
AO-7 21 Oct 05:31:57 05:40:07 57° 103° (ESE) 05:48:15 29.400 - 29.500 MHz
Sapphire 21 Oct 05:44:08 05:49:32 83° 119° (ESE) 05:54:59 437.095 MHz 1200 baud AX-25 AFSK
Gurwin Techsat 1B 21 Oct 05:59:14 06:02:11 15° 301° (WNW) 06:05:08 435.225 FM
PCSat 21 Oct 06:07:17 06:12:38 61° 304° (WNW) 06:18:02 145.825 MHz
TMSAT-1 21 Oct 06:13:16 06:16:12 15° 301° (WNW) 06:19:08 436.925 FM
Uosat F 21 Oct 06:17:09 06:22:11 70° 287° (WNW) 06:27:12 435.120 FM
STRAND 1 21 Oct 06:49:10 06:53:59 43° 69° (ENE) 06:58:51 ?
RS-15 21 Oct 06:49:19 06:59:31 39° 36° (NE) 07:10:02 29.354 - 29.394 USB, Beacon 29.352 USB
OPAL 21 Oct 06:51:47 06:55:32 20° 265° (W) 06:59:16 ?
Hamsat 21 Oct 07:00:24 07:04:30 50° 99° (E) 07:08:34 145.90 MHz
JAS-2 21 Oct 07:04:14 07:11:56 80° 103° (ESE) 07:19:49 435.800 - 435.900 CW/SSB, 435.910 FM
AO-7 21 Oct 07:25:14 07:32:34 36° 302° (WNW) 07:39:54 29.400 - 29.500 MHz
Sapphire 21 Oct 07:29:49 07:33:39 19° 319° (NW) 07:37:30 437.095 MHz 1200 baud AX-25 AFSK
PCSat 21 Oct 07:54:35 07:57:12 13° 325° (NW) 07:59:50 145.825 MHz
SO-67 21 Oct 07:58:41 08:01:40 27° 96° (E) 08:04:38 435.3500 MHz FM
Saudisat 1A 21 Oct 08:06:30 08:08:14 12° 108° (ESE) 08:09:57 436.775 MHz
